iso_date,epoch_date,Year,Hour,Min,DOY,POS_DOY,Lat,Lon,BP,Ts,Ta,has_bp,has_ts,has_ta,BuoyID,Buoy_Type,Buoy_Owner,Logistics,Hemisphere
2016-03-25T21:50:24Z,1458942624,2016,21,50,85.91,85.91,58.4078,-49.1302,1003.3,3.35,-999.0,yes,yes,no,300234061611070,BD2GI,AOML,WALTHER_HERWIG_II,North
2016-03-25T22:49:26Z,1458946166,2016,22,50,85.951,85.951,58.4014,-49.1206,1004.0,3.34,-999.0,yes,yes,no,300234061611070,BD2GI,AOML,WALTHER_HERWIG_II,North
2016-03-25T23:49:55Z,1458949795,2016,23,50,85.993,85.993,58.393,-49.1118,1004.3,3.34,-999.0,yes,yes,no,300234061611070,BD2GI,AOML,WALTHER_HERWIG_II,North
2016-03-26T00:50:24Z,1458953424,2016,0,50,86.035,86.035,58.3834,-49.1038,1004.4,3.35,-999.0,yes,yes,no,300234061611070,BD2GI,AOML,WALTHER_HERWIG_II,North
2016-03-26T01:49:26Z,1458956966,2016,1,50,86.076,86.076,58.3722,-49.0974,1004.8,3.34,-999.0,yes,yes,no,300234061611070,BD2GI,AOML,WALTHER_HERWIG_II,North
2016-03-26T02:49:55Z,1458960595,2016,2,50,86.118,86.118,58.3608,-49.092,1005.0,3.34,-999.0,yes,yes,no,300234061611070,BD2GI,AOML,WALTHER_HERWIG_II,North
2016-03-26T03:50:24Z,1458964224,2016,3,50,86.16,86.16,58.349,-49.087,1004.9,3.34,-999.0,yes,yes,no,300234061611070,BD2GI,AOML,WALTHER_HERWIG_II,North
2016-03-26T04:49:26Z,1458967766,2016,4,50,86.201,86.201,58.3372,-49.0828,1005.3,3.34,-999.0,yes,yes,no,300234061611070,BD2GI,AOML,WALTHER_HERWIG_II,North
2016-03-26T05:49:55Z,1458971395,2016,5,50,86.243,86.243,58.3268,-49.0798,1005.3,3.4,-999.0,yes,yes,no,300234061611070,BD2GI,AOML,WALTHER_HERWIG_II,North
2016-03-26T06:50:24Z,1458975024,2016,6,50,86.285,86.285,58.317,-49.078,1005.1,3.44,-999.0,yes,yes,no,300234061611070,BD2GI,AOML,WALTHER_HERWIG_II,North
2016-03-26T07:49:26Z,1458978566,2016,7,50,86.326,86.326,58.3078,-49.0794,1004.9,3.45,-999.0,yes,yes,no,300234061611070,BD2GI,AOML,WALTHER_HERWIG_II,North
2016-03-26T08:49:55Z,1458982195,2016,8,50,86.368,86.368,58.2988,-49.0808,1004.8,3.46,-999.0,yes,yes,no,300234061611070,BD2GI,AOML,WALTHER_HERWIG_II,North
2016-03-26T09:50:24Z,1458985824,2016,9,50,86.41,86.41,58.289,-49.082,1004.7,3.44,-999.0,yes,yes,no,300234061611070,BD2GI,AOML,WALTHER_HERWIG_II,North
2016-03-26T10:49:26Z,1458989366,2016,10,50,86.451,86.451,58.279,-49.0802,1004.8,3.41,-999.0,yes,yes,no,300234061611070,BD2GI,AOML,WALTHER_HERWIG_II,North
2016-03-26T11:49:55Z,1458992995,2016,11,50,86.493,86.493,58.2692,-49.0746,1004.9,3.37,-999.0,yes,yes,no,300234061611070,BD2GI,AOML,WALTHER_HERWIG_II,North
2016-03-26T12:50:24Z,1458996624,2016,12,50,86.535,86.535,58.2612,-49.0616,1004.9,3.38,-999.0,yes,yes,no,300234061611070,BD2GI,AOML,WALTHER_HERWIG_II,North
2016-03-26T13:49:26Z,1459000166,2016,13,50,86.576,86.576,58.2552,-49.0382,1004.9,3.47,-999.0,yes,yes,no,300234061611070,BD2GI,AOML,WALTHER_HERWIG_II,North
2016-03-26T14:49:55Z,1459003795,2016,14,50,86.618,86.618,58.2496,-49.0118,1004.8,3.49,-999.0,yes,yes,no,300234061611070,BD2GI,AOML,WALTHER_HERWIG_II,North
2016-03-26T15:50:24Z,1459007424,2016,15,50,86.66,86.66,58.2436,-48.9858,1004.6,3.49,-999.0,yes,yes,no,300234061611070,BD2GI,AOML,WALTHER_HERWIG_II,North
2016-03-26T16:49:26Z,1459010966,2016,16,50,86.701,86.701,58.2376,-48.959,1004.5,3.47,-999.0,yes,yes,no,300234061611070,BD2GI,AOML,WALTHER_HERWIG_II,North
2016-03-26T17:49:55Z,1459014595,2016,17,50,86.743,86.743,58.2306,-48.9366,1004.3,3.51,-999.0,yes,yes,no,300234061611070,BD2GI,AOML,WALTHER_HERWIG_II,North
2016-03-26T18:50:24Z,1459018224,2016,18,50,86.785,86.785,58.2248,-48.9182,1004.2,3.48,-999.0,yes,yes,no,300234061611070,BD2GI,AOML,WALTHER_HERWIG_II,North
2016-03-26T19:49:26Z,1459021766,2016,19,50,86.826,86.826,58.2192,-48.902,1004.5,3.45,-999.0,yes,yes,no,300234061611070,BD2GI,AOML,WALTHER_HERWIG_II,North
2016-03-26T20:49:55Z,1459025395,2016,20,50,86.868,86.868,58.2136,-48.8882,1004.6,3.43,-999.0,yes,yes,no,300234061611070,BD2GI,AOML,WALTHER_HERWIG_II,North
2016-03-26T21:50:24Z,1459029024,2016,21,50,86.91,86.91,58.2088,-48.8756,1004.9,3.44,-999.0,yes,yes,no,300234061611070,BD2GI,AOML,WALTHER_HERWIG_II,North
2016-03-26T22:49:26Z,1459032566,2016,22,50,86.951,86.951,58.2036,-48.8628,1005.3,3.43,-999.0,yes,yes,no,300234061611070,BD2GI,AOML,WALTHER_HERWIG_II,North
2016-03-26T23:49:55Z,1459036195,2016,23,50,86.993,86.993,58.1986,-48.8496,1005.7,3.42,-999.0,yes,yes,no,300234061611070,BD2GI,AOML,WALTHER_HERWIG_II,North
2016-03-27T00:50:24Z,1459039824,2016,0,50,87.035,87.035,58.1926,-48.8334,1005.9,3.41,-999.0,yes,yes,no,300234061611070,BD2GI,AOML,WALTHER_HERWIG_II,North
2016-03-27T01:49:26Z,1459043366,2016,1,50,87.076,87.076,58.1854,-48.8132,1006.1,3.39,-999.0,yes,yes,no,300234061611070,BD2GI,AOML,WALTHER_HERWIG_II,North
2016-03-27T02:49:55Z,1459046995,2016,2,50,87.118,87.118,58.1764,-48.7908,1006.2,3.4,-999.0,yes,yes,no,300234061611070,BD2GI,AOML,WALTHER_HERWIG_II,North
2016-03-27T03:50:24Z,1459050624,2016,3,50,87.16,87.16,58.167,-48.768,1006.5,3.42,-999.0,yes,yes,no,300234061611070,BD2GI,AOML,WALTHER_HERWIG_II,North
2016-03-27T04:49:26Z,1459054166,2016,4,50,87.201,87.201,58.1574,-48.7492,1006.7,3.44,-999.0,yes,yes,no,300234061611070,BD2GI,AOML,WALTHER_HERWIG_II,North
2016-03-27T05:49:55Z,1459057795,2016,5,50,87.243,87.243,58.148,-48.7328,1006.8,3.45,-999.0,yes,yes,no,300234061611070,BD2GI,AOML,WALTHER_HERWIG_II,North
2016-03-27T06:50:24Z,1459061424,2016,6,50,87.285,87.285,58.1378,-48.7212,1007.4,3.44,-999.0,yes,yes,no,300234061611070,BD2GI,AOML,WALTHER_HERWIG_II,North
2016-03-27T07:49:26Z,1459064966,2016,7,50,87.326,87.326,58.1272,-48.7124,1007.4,3.43,-999.0,yes,yes,no,300234061611070,BD2GI,AOML,WALTHER_HERWIG_II,North
2016-03-27T08:49:55Z,1459068595,2016,8,50,87.368,87.368,58.1182,-48.7058,1007.5,3.38,-999.0,yes,yes,no,300234061611070,BD2GI,AOML,WALTHER_HERWIG_II,North
2016-03-27T09:50:24Z,1459072224,2016,9,50,87.41,87.41,58.1092,-48.7004,1008.1,3.38,-999.0,yes,yes,no,300234061611070,BD2GI,AOML,WALTHER_HERWIG_II,North
2016-03-27T10:49:26Z,1459075766,2016,10,50,87.451,87.451,58.0984,-48.699,1008.1,3.37,-999.0,yes,yes,no,300234061611070,BD2GI,AOML,WALTHER_HERWIG_II,North
2016-03-27T11:49:55Z,1459079395,2016,11,50,87.493,87.493,58.0874,-48.6998,1008.0,3.34,-999.0,yes,yes,no,300234061611070,BD2GI,AOML,WALTHER_HERWIG_II,North
2016-03-27T12:50:24Z,1459083024,2016,12,50,87.535,87.535,58.0794,-48.696,1008.2,3.34,-999.0,yes,yes,no,300234061611070,BD2GI,AOML,WALTHER_HERWIG_II,North
2016-03-27T13:49:26Z,1459086566,2016,13,50,87.576,87.576,58.0712,-48.6878,1008.3,3.35,-999.0,yes,yes,no,300234061611070,BD2GI,AOML,WALTHER_HERWIG_II,North
2016-03-27T14:49:55Z,1459090195,2016,14,50,87.618,87.618,58.062,-48.6764,1008.4,3.34,-999.0,yes,yes,no,300234061611070,BD2GI,AOML,WALTHER_HERWIG_II,North
2016-03-27T15:50:24Z,1459093824,2016,15,50,87.66,87.66,58.0524,-48.6654,1008.6,3.33,-999.0,yes,yes,no,300234061611070,BD2GI,AOML,WALTHER_HERWIG_II,North
2016-03-27T16:49:26Z,1459097366,2016,16,50,87.701,87.701,58.0426,-48.6526,1008.6,3.32,-999.0,yes,yes,no,300234061611070,BD2GI,AOML,WALTHER_HERWIG_II,North
2016-03-27T17:49:55Z,1459100995,2016,17,50,87.743,87.743,58.0336,-48.6408,1008.8,3.33,-999.0,yes,yes,no,300234061611070,BD2GI,AOML,WALTHER_HERWIG_II,North
2016-03-27T18:50:24Z,1459104624,2016,18,50,87.785,87.785,58.027,-48.6274,1009.2,3.32,-999.0,yes,yes,no,300234061611070,BD2GI,AOML,WALTHER_HERWIG_II,North
2016-03-27T19:49:26Z,1459108166,2016,19,50,87.826,87.826,58.0212,-48.6186,1009.3,3.32,-999.0,yes,yes,no,300234061611070,BD2GI,AOML,WALTHER_HERWIG_II,North
2016-03-27T20:49:55Z,1459111795,2016,20,50,87.868,87.868,58.0164,-48.6112,1009.7,3.32,-999.0,yes,yes,no,300234061611070,BD2GI,AOML,WALTHER_HERWIG_II,North
2016-03-27T21:50:24Z,1459115424,2016,21,50,87.91,87.91,58.0114,-48.6078,1009.7,3.29,-999.0,yes,yes,no,300234061611070,BD2GI,AOML,WALTHER_HERWIG_II,North
2016-03-27T22:49:26Z,1459118966,2016,22,50,87.951,87.951,58.0068,-48.6022,1009.9,3.25,-999.0,yes,yes,no,300234061611070,BD2GI,AOML,WALTHER_HERWIG_II,North
2016-03-27T23:49:55Z,1459122595,2016,23,50,87.993,87.993,58.0016,-48.5974,1009.9,3.23,-999.0,yes,yes,no,300234061611070,BD2GI,AOML,WALTHER_HERWIG_II,North
2016-03-28T00:50:24Z,1459126224,2016,0,50,88.035,88.035,57.9958,-48.5938,1010.3,3.23,-999.0,yes,yes,no,300234061611070,BD2GI,AOML,WALTHER_HERWIG_II,North
2016-03-28T01:49:26Z,1459129766,2016,1,50,88.076,88.076,57.9884,-48.5896,1010.4,3.21,-999.0,yes,yes,no,300234061611070,BD2GI,AOML,WALTHER_HERWIG_II,North
2016-03-28T02:49:55Z,1459133395,2016,2,50,88.118,88.118,57.9814,-48.5844,1010.8,3.2,-999.0,yes,yes,no,300234061611070,BD2GI,AOML,WALTHER_HERWIG_II,North
2016-03-28T03:50:24Z,1459137024,2016,3,50,88.16,88.16,57.9756,-48.5758,1010.9,3.23,-999.0,yes,yes,no,300234061611070,BD2GI,AOML,WALTHER_HERWIG_II,North
2016-03-28T04:49:26Z,1459140566,2016,4,50,88.201,88.201,57.971,-48.5664,1011.0,3.23,-999.0,yes,yes,no,300234061611070,BD2GI,AOML,WALTHER_HERWIG_II,North
2016-03-28T05:49:55Z,1459144195,2016,5,50,88.243,88.243,57.9676,-48.5576,1011.3,3.24,-999.0,yes,yes,no,300234061611070,BD2GI,AOML,WALTHER_HERWIG_II,North
2016-03-28T06:50:24Z,1459147824,2016,6,50,88.285,88.285,57.9662,-48.5468,1011.6,3.24,-999.0,yes,yes,no,300234061611070,BD2GI,AOML,WALTHER_HERWIG_II,North
2016-03-28T07:49:26Z,1459151366,2016,7,50,88.326,88.326,57.9666,-48.5376,1011.5,3.24,-999.0,yes,yes,no,300234061611070,BD2GI,AOML,WALTHER_HERWIG_II,North
2016-03-28T08:49:55Z,1459154995,2016,8,50,88.368,88.368,57.9674,-48.5298,1011.6,3.2,-999.0,yes,yes,no,300234061611070,BD2GI,AOML,WALTHER_HERWIG_II,North
2016-03-28T09:50:24Z,1459158624,2016,9,50,88.41,88.41,57.9692,-48.5242,1011.6,3.13,-999.0,yes,yes,no,300234061611070,BD2GI,AOML,WALTHER_HERWIG_II,North
2016-03-28T10:49:26Z,1459162166,2016,10,50,88.451,88.451,57.9708,-48.5188,1012.0,3.14,-999.0,yes,yes,no,300234061611070,BD2GI,AOML,WALTHER_HERWIG_II,North
2016-03-28T11:49:55Z,1459165795,2016,11,50,88.493,88.493,57.9722,-48.5122,1011.9,3.15,-999.0,yes,yes,no,300234061611070,BD2GI,AOML,WALTHER_HERWIG_II,North
2016-03-28T12:50:24Z,1459169424,2016,12,50,88.535,88.535,57.9742,-48.505,1012.1,3.17,-999.0,yes,yes,no,300234061611070,BD2GI,AOML,WALTHER_HERWIG_II,North
2016-03-28T13:49:26Z,1459172966,2016,13,50,88.576,88.576,57.975,-48.4948,1012.3,3.17,-999.0,yes,yes,no,300234061611070,BD2GI,AOML,WALTHER_HERWIG_II,North
2016-03-28T14:49:55Z,1459176595,2016,14,50,88.618,88.618,57.9756,-48.4834,1012.4,3.19,-999.0,yes,yes,no,300234061611070,BD2GI,AOML,WALTHER_HERWIG_II,North
2016-03-28T15:50:24Z,1459180224,2016,15,50,88.66,88.66,57.9748,-48.4716,1012.7,3.19,-999.0,yes,yes,no,300234061611070,BD2GI,AOML,WALTHER_HERWIG_II,North
2016-03-28T16:49:26Z,1459183766,2016,16,50,88.701,88.701,57.974,-48.4584,1012.3,3.19,-999.0,yes,yes,no,300234061611070,BD2GI,AOML,WALTHER_HERWIG_II,North
2016-03-28T17:49:55Z,1459187395,2016,17,50,88.743,88.743,57.9722,-48.4462,1012.2,3.18,-999.0,yes,yes,no,300234061611070,BD2GI,AOML,WALTHER_HERWIG_II,North
2016-03-28T18:50:24Z,1459191024,2016,18,50,88.785,88.785,57.9708,-48.4366,1012.1,3.19,-999.0,yes,yes,no,300234061611070,BD2GI,AOML,WALTHER_HERWIG_II,North
2016-03-28T19:49:26Z,1459194566,2016,19,50,88.826,88.826,57.9692,-48.4292,1012.1,3.19,-999.0,yes,yes,no,300234061611070,BD2GI,AOML,WALTHER_HERWIG_II,North
2016-03-28T20:49:55Z,1459198195,2016,20,50,88.868,88.868,57.968,-48.4244,1012.1,3.19,-999.0,yes,yes,no,300234061611070,BD2GI,AOML,WALTHER_HERWIG_II,North
2016-03-28T21:50:24Z,1459201824,2016,21,50,88.91,88.91,57.9684,-48.4208,1012.4,3.2,-999.0,yes,yes,no,300234061611070,BD2GI,AOML,WALTHER_HERWIG_II,North
2016-03-28T22:49:26Z,1459205366,2016,22,50,88.951,88.951,57.9682,-48.4192,1012.7,3.19,-999.0,yes,yes,no,300234061611070,BD2GI,AOML,WALTHER_HERWIG_II,North
2016-03-28T23:49:55Z,1459208995,2016,23,50,88.993,88.993,57.9692,-48.4178,1012.4,3.19,-999.0,yes,yes,no,300234061611070,BD2GI,AOML,WALTHER_HERWIG_II,North
2016-03-29T00:50:24Z,1459212624,2016,0,50,89.035,89.035,57.9692,-48.4166,1012.0,3.17,-999.0,yes,yes,no,300234061611070,BD2GI,AOML,WALTHER_HERWIG_II,North
2016-03-29T01:49:26Z,1459216166,2016,1,50,89.076,89.076,57.9686,-48.4162,1011.6,3.17,-999.0,yes,yes,no,300234061611070,BD2GI,AOML,WALTHER_HERWIG_II,North
2016-03-29T02:49:55Z,1459219795,2016,2,50,89.118,89.118,57.9686,-48.4142,1011.3,3.18,-999.0,yes,yes,no,300234061611070,BD2GI,AOML,WALTHER_HERWIG_II,North
2016-03-29T03:50:24Z,1459223424,2016,3,50,89.16,89.16,57.9704,-48.4088,1010.9,3.17,-999.0,yes,yes,no,300234061611070,BD2GI,AOML,WALTHER_HERWIG_II,North
2016-03-29T04:49:26Z,1459226966,2016,4,50,89.201,89.201,57.973,-48.4032,1010.8,3.19,-999.0,yes,yes,no,300234061611070,BD2GI,AOML,WALTHER_HERWIG_II,North
2016-03-29T05:49:55Z,1459230595,2016,5,50,89.243,89.243,57.9752,-48.3964,1010.2,3.2,-999.0,yes,yes,no,300234061611070,BD2GI,AOML,WALTHER_HERWIG_II,North
2016-03-29T06:50:24Z,1459234224,2016,6,50,89.285,89.285,57.9772,-48.3888,1009.9,3.18,-999.0,yes,yes,no,300234061611070,BD2GI,AOML,WALTHER_HERWIG_II,North
2016-03-29T07:49:26Z,1459237766,2016,7,50,89.326,89.326,57.9794,-48.3822,1009.5,3.2,-999.0,yes,yes,no,300234061611070,BD2GI,AOML,WALTHER_HERWIG_II,North
2016-03-29T08:49:55Z,1459241395,2016,8,50,89.368,89.368,57.9824,-48.3768,1009.3,3.15,-999.0,yes,yes,no,300234061611070,BD2GI,AOML,WALTHER_HERWIG_II,North
2016-03-29T09:50:24Z,1459245024,2016,9,50,89.41,89.41,57.9856,-48.3714,1009.1,3.17,-999.0,yes,yes,no,300234061611070,BD2GI,AOML,WALTHER_HERWIG_II,North
2016-03-29T10:49:26Z,1459248566,2016,10,50,89.451,89.451,57.989,-48.3662,1008.9,3.23,-999.0,yes,yes,no,300234061611070,BD2GI,AOML,WALTHER_HERWIG_II,North
2016-03-29T11:49:55Z,1459252195,2016,11,50,89.493,89.493,57.9916,-48.361,1008.8,3.23,-999.0,yes,yes,no,300234061611070,BD2GI,AOML,WALTHER_HERWIG_II,North
2016-03-29T12:50:24Z,1459255824,2016,12,50,89.535,89.535,57.9936,-48.3552,1008.6,3.26,-999.0,yes,yes,no,300234061611070,BD2GI,AOML,WALTHER_HERWIG_II,North
2016-03-29T13:49:26Z,1459259366,2016,13,50,89.576,89.576,57.9944,-48.3474,1008.5,3.29,-999.0,yes,yes,no,300234061611070,BD2GI,AOML,WALTHER_HERWIG_II,North
2016-03-29T14:49:55Z,1459262995,2016,14,50,89.618,89.618,57.9934,-48.339,1008.3,3.31,-999.0,yes,yes,no,300234061611070,BD2GI,AOML,WALTHER_HERWIG_II,North
2016-03-29T15:50:24Z,1459266624,2016,15,50,89.66,89.66,57.9924,-48.3282,1007.7,3.42,-999.0,yes,yes,no,300234061611070,BD2GI,AOML,WALTHER_HERWIG_II,North
2016-03-29T16:49:26Z,1459270166,2016,16,50,89.701,89.701,57.991,-48.3182,1006.9,3.47,-999.0,yes,yes,no,300234061611070,BD2GI,AOML,WALTHER_HERWIG_II,North
2016-03-29T19:49:26Z,1459280966,2016,19,50,89.826,89.826,57.985,-48.2984,1005.4,3.38,-999.0,yes,yes,no,300234061611070,BD2GI,AOML,WALTHER_HERWIG_II,North
2016-03-29T20:49:55Z,1459284595,2016,20,50,89.868,89.868,57.983,-48.2978,1004.9,3.33,-999.0,yes,yes,no,300234061611070,BD2GI,AOML,WALTHER_HERWIG_II,North
2016-03-29T21:50:24Z,1459288224,2016,21,50,89.91,89.91,57.9816,-48.3014,1003.9,3.3,-999.0,yes,yes,no,300234061611070,BD2GI,AOML,WALTHER_HERWIG_II,North
2016-03-29T22:49:26Z,1459291766,2016,22,50,89.951,89.951,57.9812,-48.3076,1003.0,3.3,-999.0,yes,yes,no,300234061611070,BD2GI,AOML,WALTHER_HERWIG_II,North
2016-03-29T23:49:55Z,1459295395,2016,23,50,89.993,89.993,57.9818,-48.3172,1002.3,3.32,-999.0,yes,yes,no,300234061611070,BD2GI,AOML,WALTHER_HERWIG_II,North
2016-03-30T00:50:24Z,1459299024,2016,0,50,90.035,90.035,57.9836,-48.3278,1001.0,3.27,-999.0,yes,yes,no,300234061611070,BD2GI,AOML,WALTHER_HERWIG_II,North
2016-03-30T01:49:26Z,1459302566,2016,1,50,90.076,90.076,57.9854,-48.339,999.9,3.26,-999.0,yes,yes,no,300234061611070,BD2GI,AOML,WALTHER_HERWIG_II,North
2016-03-30T02:49:55Z,1459306195,2016,2,50,90.118,90.118,57.987,-48.3498,999.1,3.26,-999.0,yes,yes,no,300234061611070,BD2GI,AOML,WALTHER_HERWIG_II,North
2016-03-30T03:50:24Z,1459309824,2016,3,50,90.16,90.16,57.9892,-48.3586,998.1,3.25,-999.0,yes,yes,no,300234061611070,BD2GI,AOML,WALTHER_HERWIG_II,North
2016-03-30T04:49:26Z,1459313366,2016,4,50,90.201,90.201,57.9918,-48.3656,996.6,3.25,-999.0,yes,yes,no,300234061611070,BD2GI,AOML,WALTHER_HERWIG_II,North
2016-03-30T05:49:55Z,1459316995,2016,5,50,90.243,90.243,57.9934,-48.3722,995.0,3.24,-999.0,yes,yes,no,300234061611070,BD2GI,AOML,WALTHER_HERWIG_II,North
2016-03-30T06:50:24Z,1459320624,2016,6,50,90.285,90.285,57.9944,-48.3788,993.3,3.23,-999.0,yes,yes,no,300234061611070,BD2GI,AOML,WALTHER_HERWIG_II,North
2016-03-30T07:49:26Z,1459324166,2016,7,50,90.326,90.326,57.9954,-48.385,992.0,3.22,-999.0,yes,yes,no,300234061611070,BD2GI,AOML,WALTHER_HERWIG_II,North
2016-03-30T08:49:55Z,1459327795,2016,8,50,90.368,90.368,57.9954,-48.393,991.2,3.22,-999.0,yes,yes,no,300234061611070,BD2GI,AOML,WALTHER_HERWIG_II,North
2016-03-30T09:50:24Z,1459331424,2016,9,50,90.41,90.41,57.9958,-48.4026,990.6,3.21,-999.0,yes,yes,no,300234061611070,BD2GI,AOML,WALTHER_HERWIG_II,North
2016-03-30T10:49:26Z,1459334966,2016,10,50,90.451,90.451,57.9968,-48.4134,989.5,3.2,-999.0,yes,yes,no,300234061611070,BD2GI,AOML,WALTHER_HERWIG_II,North
2016-03-30T11:49:55Z,1459338595,2016,11,50,90.493,90.493,57.9988,-48.423,987.9,3.21,-999.0,yes,yes,no,300234061611070,BD2GI,AOML,WALTHER_HERWIG_II,North
2016-03-30T12:50:24Z,1459342224,2016,12,50,90.535,90.535,58.0004,-48.4324,986.3,3.21,-999.0,yes,yes,no,300234061611070,BD2GI,AOML,WALTHER_HERWIG_II,North
2016-03-30T13:49:26Z,1459345766,2016,13,50,90.576,90.576,58.0016,-48.4414,984.5,3.19,-999.0,yes,yes,no,300234061611070,BD2GI,AOML,WALTHER_HERWIG_II,North
2016-03-30T14:49:55Z,1459349395,2016,14,50,90.618,90.618,58.0028,-48.4504,983.1,3.19,-999.0,yes,yes,no,300234061611070,BD2GI,AOML,WALTHER_HERWIG_II,North
2016-03-30T15:50:24Z,1459353024,2016,15,50,90.66,90.66,58.0038,-48.4596,982.2,3.17,-999.0,yes,yes,no,300234061611070,BD2GI,AOML,WALTHER_HERWIG_II,North
2016-03-30T16:49:26Z,1459356566,2016,16,50,90.701,90.701,58.0042,-48.4668,981.5,3.18,-999.0,yes,yes,no,300234061611070,BD2GI,AOML,WALTHER_HERWIG_II,North
2016-03-30T17:49:55Z,1459360195,2016,17,50,90.743,90.743,58.0056,-48.473,981.1,3.18,-999.0,yes,yes,no,300234061611070,BD2GI,AOML,WALTHER_HERWIG_II,North
2016-03-30T18:50:24Z,1459363824,2016,18,50,90.785,90.785,58.0064,-48.4776,981.2,3.18,-999.0,yes,yes,no,300234061611070,BD2GI,AOML,WALTHER_HERWIG_II,North
2016-03-30T19:49:26Z,1459367366,2016,19,50,90.826,90.826,58.0068,-48.4816,981.6,3.18,-999.0,yes,yes,no,300234061611070,BD2GI,AOML,WALTHER_HERWIG_II,North
2016-03-30T20:49:55Z,1459370995,2016,20,50,90.868,90.868,58.0068,-48.4856,982.1,3.19,-999.0,yes,yes,no,300234061611070,BD2GI,AOML,WALTHER_HERWIG_II,North
2016-03-30T21:50:24Z,1459374624,2016,21,50,90.91,90.91,58.007,-48.4882,983.0,3.19,-999.0,yes,yes,no,300234061611070,BD2GI,AOML,WALTHER_HERWIG_II,North
2016-03-30T22:49:26Z,1459378166,2016,22,50,90.951,90.951,58.0072,-48.4924,983.4,3.18,-999.0,yes,yes,no,300234061611070,BD2GI,AOML,WALTHER_HERWIG_II,North
2016-03-30T23:49:55Z,1459381795,2016,23,50,90.993,90.993,58.0066,-48.4956,984.0,3.18,-999.0,yes,yes,no,300234061611070,BD2GI,AOML,WALTHER_HERWIG_II,North
2016-03-31T00:50:24Z,1459385424,2016,0,50,91.035,91.035,58.0074,-48.5,984.5,3.17,-999.0,yes,yes,no,300234061611070,BD2GI,AOML,WALTHER_HERWIG_II,North
2016-03-31T01:49:26Z,1459388966,2016,1,50,91.076,91.076,58.0072,-48.5012,984.9,3.17,-999.0,yes,yes,no,300234061611070,BD2GI,AOML,WALTHER_HERWIG_II,North
2016-03-31T02:49:55Z,1459392595,2016,2,50,91.118,91.118,58.007,-48.5042,985.5,3.17,-999.0,yes,yes,no,300234061611070,BD2GI,AOML,WALTHER_HERWIG_II,North
2016-03-31T03:50:24Z,1459396224,2016,3,50,91.16,91.16,58.006,-48.5068,986.2,3.18,-999.0,yes,yes,no,300234061611070,BD2GI,AOML,WALTHER_HERWIG_II,North
2016-03-31T04:49:26Z,1459399766,2016,4,50,91.201,91.201,58.0058,-48.51,986.7,3.17,-999.0,yes,yes,no,300234061611070,BD2GI,AOML,WALTHER_HERWIG_II,North
2016-03-31T05:49:55Z,1459403395,2016,5,50,91.243,91.243,58.0056,-48.5118,987.3,3.18,-999.0,yes,yes,no,300234061611070,BD2GI,AOML,WALTHER_HERWIG_II,North
2016-03-31T06:50:24Z,1459407024,2016,6,50,91.285,91.285,58.006,-48.5142,987.9,3.17,-999.0,yes,yes,no,300234061611070,BD2GI,AOML,WALTHER_HERWIG_II,North
2016-03-31T07:49:26Z,1459410566,2016,7,50,91.326,91.326,58.0068,-48.5152,988.6,3.17,-999.0,yes,yes,no,300234061611070,BD2GI,AOML,WALTHER_HERWIG_II,North
2016-03-31T08:49:55Z,1459414195,2016,8,50,91.368,91.368,58.0074,-48.5136,989.3,3.18,-999.0,yes,yes,no,300234061611070,BD2GI,AOML,WALTHER_HERWIG_II,North
2016-03-31T09:50:24Z,1459417824,2016,9,50,91.41,91.41,58.0072,-48.5128,990.0,3.17,-999.0,yes,yes,no,300234061611070,BD2GI,AOML,WALTHER_HERWIG_II,North
2016-03-31T10:49:26Z,1459421366,2016,10,50,91.451,91.451,58.0074,-48.513,990.7,3.17,-999.0,yes,yes,no,300234061611070,BD2GI,AOML,WALTHER_HERWIG_II,North
2016-03-31T11:49:55Z,1459424995,2016,11,50,91.493,91.493,58.007,-48.514,990.9,3.17,-999.0,yes,yes,no,300234061611070,BD2GI,AOML,WALTHER_HERWIG_II,North
2016-03-31T12:50:24Z,1459428624,2016,12,50,91.535,91.535,58.0064,-48.5164,991.6,3.19,-999.0,yes,yes,no,300234061611070,BD2GI,AOML,WALTHER_HERWIG_II,North
2016-03-31T13:49:26Z,1459432166,2016,13,50,91.576,91.576,58.0058,-48.5188,992.1,3.21,-999.0,yes,yes,no,300234061611070,BD2GI,AOML,WALTHER_HERWIG_II,North
2016-03-31T15:50:24Z,1459439424,2016,15,50,91.66,91.66,58.0032,-48.5226,992.8,3.23,-999.0,yes,yes,no,300234061611070,BD2GI,AOML,WALTHER_HERWIG_II,North
2016-03-31T16:49:26Z,1459442966,2016,16,50,91.701,91.701,58.0014,-48.5222,993.4,3.24,-999.0,yes,yes,no,300234061611070,BD2GI,AOML,WALTHER_HERWIG_II,North
2016-03-31T17:49:55Z,1459446595,2016,17,50,91.743,91.743,57.9998,-48.5226,993.8,3.23,-999.0,yes,yes,no,300234061611070,BD2GI,AOML,WALTHER_HERWIG_II,North
2016-03-31T18:50:24Z,1459450224,2016,18,50,91.785,91.785,57.9984,-48.5234,994.4,3.23,-999.0,yes,yes,no,300234061611070,BD2GI,AOML,WALTHER_HERWIG_II,North
2016-03-31T19:49:26Z,1459453766,2016,19,50,91.826,91.826,57.9982,-48.5252,994.9,3.23,-999.0,yes,yes,no,300234061611070,BD2GI,AOML,WALTHER_HERWIG_II,North
2016-03-31T20:49:55Z,1459457395,2016,20,50,91.868,91.868,57.9972,-48.5262,995.5,3.23,-999.0,yes,yes,no,300234061611070,BD2GI,AOML,WALTHER_HERWIG_II,North
2016-03-31T21:50:24Z,1459461024,2016,21,50,91.91,91.91,57.996,-48.5276,995.7,3.24,-999.0,yes,yes,no,300234061611070,BD2GI,AOML,WALTHER_HERWIG_II,North
2016-03-31T22:49:26Z,1459464566,2016,22,50,91.951,91.951,57.996,-48.5296,996.3,3.23,-999.0,yes,yes,no,300234061611070,BD2GI,AOML,WALTHER_HERWIG_II,North
2016-03-31T23:49:55Z,1459468195,2016,23,50,91.993,91.993,57.996,-48.5308,996.7,3.23,-999.0,yes,yes,no,300234061611070,BD2GI,AOML,WALTHER_HERWIG_II,North
2016-04-01T00:50:24Z,1459471824,2016,0,50,92.035,92.035,57.9956,-48.5326,997.0,3.21,-999.0,yes,yes,no,300234061611070,BD2GI,AOML,WALTHER_HERWIG_II,North
2016-04-01T01:49:26Z,1459475366,2016,1,50,92.076,92.076,57.9946,-48.5352,997.2,3.21,-999.0,yes,yes,no,300234061611070,BD2GI,AOML,WALTHER_HERWIG_II,North
2016-04-01T02:49:55Z,1459478995,2016,2,50,92.118,92.118,57.9926,-48.5366,997.5,3.21,-999.0,yes,yes,no,300234061611070,BD2GI,AOML,WALTHER_HERWIG_II,North
2016-04-01T03:50:24Z,1459482624,2016,3,50,92.16,92.16,57.9896,-48.5378,997.8,3.22,-999.0,yes,yes,no,300234061611070,BD2GI,AOML,WALTHER_HERWIG_II,North
2016-04-01T04:49:26Z,1459486166,2016,4,50,92.201,92.201,57.9842,-48.5366,998.4,3.23,-999.0,yes,yes,no,300234061611070,BD2GI,AOML,WALTHER_HERWIG_II,North
2016-04-01T05:49:55Z,1459489795,2016,5,50,92.243,92.243,57.9786,-48.5302,998.9,3.25,-999.0,yes,yes,no,300234061611070,BD2GI,AOML,WALTHER_HERWIG_II,North
2016-04-01T06:50:24Z,1459493424,2016,6,50,92.285,92.285,57.9742,-48.5214,999.7,3.24,-999.0,yes,yes,no,300234061611070,BD2GI,AOML,WALTHER_HERWIG_II,North
2016-04-01T07:49:26Z,1459496966,2016,7,50,92.326,92.326,57.9702,-48.5092,1000.4,3.22,-999.0,yes,yes,no,300234061611070,BD2GI,AOML,WALTHER_HERWIG_II,North
2016-04-01T08:49:55Z,1459500595,2016,8,50,92.368,92.368,57.969,-48.4976,1000.8,3.24,-999.0,yes,yes,no,300234061611070,BD2GI,AOML,WALTHER_HERWIG_II,North
2016-04-01T09:50:24Z,1459504224,2016,9,50,92.41,92.41,57.9676,-48.4838,1001.4,3.22,-999.0,yes,yes,no,300234061611070,BD2GI,AOML,WALTHER_HERWIG_II,North
2016-04-01T10:49:26Z,1459507766,2016,10,50,92.451,92.451,57.9674,-48.4736,1001.8,3.21,-999.0,yes,yes,no,300234061611070,BD2GI,AOML,WALTHER_HERWIG_II,North